Regional Weather Roundup
Issued by NWS

Home | Current Version | Previous Version | Text Only | Print | Product List | Glossary Off
Versions: 1 2 3 4 5 6 7 8 9 10 11 12 13 14 15 16 17 18 19 20 21 22 23 24 25 26 27 28 29 30 31 32 33 34 35 36 37 38 39 40 41 42 43 44 45 46 47 48 49 50

000
ASUS45 KBOU 271807
RWRCO

WEATHER ROUNDUP FOR COLORADO
NATIONAL WEATHER SERVICE DENVER/BOULDER CO
1200 PM MDT SUN JUL 27 2014

NOTE: "FAIR" INDICATES FEW OR NO CLOUDS BELOW 12000 FEET WITH NO
SIGNIFICANT WEATHER AND/OR OBSTRUCTIONS TO VISIBILITY.

COZ001>005-013-030-031-271900-
...NORTHWEST COLORADO...

CITY           SKY/WX    TMP DP  RH WIND       PRES   REMARKS
CRAIG          PTSUNNY   65  51  60 CALM      30.40F
HAYDEN         PTSUNNY   73  46  38 CALM      30.41F
MEEKER         CLOUDY    73  48  41 NE3       30.40F
MOUNT WERNER   NOT AVBL
STEAMBOAT SPGS PTSUNNY   72  51  47 CALM      30.43F
WALDEN         SUNNY     70  43  37 CALM      30.51F
$$

COZ006>008-011-271900-
...WEST CENTRAL VALLEYS...

CITY           SKY/WX    TMP DP  RH WIND       PRES   REMARKS
GRAND JUNCTION MOSUNNY   89  47  23 SE9       30.24F
MONTROSE       MOSUNNY   87  48  25 NE5       30.32F
EAGLE          PTSUNNY   66  55  68 CALM      30.45F
RIFLE          PTSUNNY   78  53  41 NE5       30.33S
DELTA          MOSUNNY   88  48  25 S5        30.28F
NUCLA          MOSUNNY   88  43  20 SW3       30.35S
$$

COZ017>023-064>068-271900-
...SOUTHWEST COLORADO...

CITY           SKY/WX    TMP DP  RH WIND       PRES   REMARKS
DURANGO        PTSUNNY   80  46  30 VRB6      30.37F
CORTEZ         SUNNY     85  48  27 VRB5      30.33F
PAGOSA SPRINGS PTSUNNY   77  41  27 S6        30.47F
TELLURIDE      MOSUNNY   72  46  40 W7        30.57S THUNDER
WOLF CREEK PAS NOT AVBL
$$

COZ009-010-012-014-032>034-037-058>063-271900-
...CENTRAL COLORADO...

CITY           SKY/WX    TMP DP  RH WIND       PRES   REMARKS
ASPEN          MOSUNNY   78  43  28 VRB7      30.46F
BUENA VISTA    NOT AVBL
COPPER MTN     CLOUDY    64  37  36 W6        30.83R
BERTHOUD PASS  CLOUDY    50  36  57 MISG      30.88S
COTTONWOOD PAS SUNNY     75  34  22 SE7       30.65F
GUNNISON       SUNNY     72  50  46 CALM      30.50F
KREMMLING      PTSUNNY   70  45  40 CALM      30.49F
LEADVILLE      CLOUDY    68  34  28 CALM      30.62F
MONARCH PASS   MOSUNNY   59  41  51 NE13      30.91F
SALIDA         SUNNY    N/A N/A N/A SE10G16   30.53F
SUNLIGHT       CLOUDY    64  50  59 CALM      30.74R
WILKERSON PASS NOT AVBL
$$

COZ069>075-271900-
...SAN LUIS VALLEY/SANGRE DE CRISTO MOUNTAINS...

CITY           SKY/WX    TMP DP  RH WIND       PRES   REMARKS
ALAMOSA        SUNNY     77  49  37 E3        30.45F
LA VETA PASS   MOSUNNY   68  50  52 E15G23    30.69S THUNDER
SAGUACHE       SUNNY     75  48  38 S5        30.48F
$$

COZ035-036-038>040-271900-
...NORTHERN COLORADO FRONT RANGE...

CITY           SKY/WX    TMP DP  RH WIND       PRES   REMARKS
DENVER INTL AP MOSUNNY   77  55  46 SW6       30.38S
DMNS CITY PARK   N/A     73  59  61 N6        30.38F
AURORA         PTSUNNY   71  59  64 W3        30.41S
FRONT RANGE AP MOSUNNY   77  57  50 S3        30.39
ERIE MUNI ARPT CLOUDY    73  63  71 NW7       30.38S
BOULDER MUN AP CLOUDY    72  63  73 N7        30.39S
CENTENNIAL     PTSUNNY   73  57  57 NW10      30.42S
BROOMFIELD     NOT AVBL
FORT COLLINS   CLOUDY    77  59  53 E7        30.38F
LONGMONT       PTSUNNY   78  64  61 N6        30.39F
$$

COZ041-046-047-076>085-087-088-271900-
...PIKES PEAK/PALMER DIVIDE AND SOUTHERN FOOTHILLS...

CITY           SKY/WX    TMP DP  RH WIND       PRES   REMARKS
COLO. SPRINGS  MOSUNNY   77  54  44 S7        30.43F
A. F. ACADEMY  SUNNY     77  54  44 S8        30.44F
ELLICOTT       MOSUNNY   78  54  43 SE9G16    30.41F
FALCON         MOSUNNY   76  53  44 S8        30.48F
FORT CARSON    MOSUNNY   78  58  49 SE8       30.40F
LIMON          SUNNY     80  47  31 SE14G21   30.39R
MONUMENT HILL  SUNNY     70  54  56 CALM      30.48F
TRINIDAD       MOSUNNY   81  52  36 MISG      30.37F
$$

COZ042>045-048>051-090-091-271900-
...NORTHEAST COLORADO...

CITY           SKY/WX    TMP DP  RH WIND       PRES   REMARKS
GREELEY ARPT   PTSUNNY   77  57  50 E13       30.36S
AKRON          SUNNY     79  47  32 SE9G22    30.36F
BURLINGTON     SUNNY     79  57  46 E8G20     30.34S
WRAY           NOT AVBL
STERLING       SUNNY     84  50  30 E5        30.32S
HOLYOKE        CLOUDY    81  46  30 E12       30.34R
FORT MORGAN    SUNNY     80  50  34 SE14G22   30.35F
$$

COZ086-089-092>099-271900-
...SOUTHEAST COLORADO...

CITY           SKY/WX    TMP DP  RH WIND       PRES   REMARKS
PUEBLO         SUNNY     81  61  50 MISG      30.32F
LA JUNTA       SUNNY     82  62  50 E12G17    30.30F
LAMAR          MOSUNNY   82  65  56 E13       30.26F
SPRINGFIELD      N/A     81  64  56 NE10      30.30S
$$



USA.gov is the U.S. government's official web portal to all federal, state and local government web resources and services.